This is the latest recevied weather packets stored in our database for station/object W1REE. If no packets are shown the sender has not sent any weather packets the latest 10 day(s).
| Time | Temp. | Humidity | Pressure | Rain* | Wind** | Luminosity | Snow |
|---|---|---|---|---|---|---|---|
| 1777500288 | 8.89° C | 73% | 1020 hPa | 0 mm | - | 140 W/m² | - |
| 1777499077 | 8.33° C | 76% | 1020.1 hPa | 1.78 mm | - | 271 W/m² | - |
| 1777497559 | 9.44° C | 65% | 1020.2 hPa | 0 mm | - | 55 W/m² | - |
| 1777497255 | 9.44° C | 64% | 1020.4 hPa | 0 mm | - | 81 W/m² | - |
| 1777496952 | 10° C | 62% | 1020.5 hPa | 0 mm | - | 142 W/m² | - |
| 1777496649 | 10° C | 62% | 1020.2 hPa | 0 mm | - | 200 W/m² | - |
| 1777496346 | 10° C | 65% | 1020.4 hPa | 0 mm | - | 300 W/m² | - |
| 1777495738 | 10° C | 61% | 1020.6 hPa | 0 mm | - | 395 W/m² | - |
| 1777495130 | 10.56° C | 62% | 1020.5 hPa | 0 mm | - | 405 W/m² | - |
| 1777494827 | 9.44° C | 62% | 1020.7 hPa | 0 mm | - | 1110 W/m² | - |
| 1777494525 | 9.44° C | 67% | 1020.7 hPa | 0 mm | - | 1165 W/m² | - |
| 1777494222 | 9.44° C | 68% | 1020.8 hPa | 0 mm | - | 853 W/m² | - |
| 1777493919 | 8.89° C | 76% | 1020.7 hPa | 0 mm | - | 1271 W/m² | - |
| 1777493315 | 6.11° C | 90% | 1020.7 hPa | 0 mm | - | 1195 W/m² | - |
| 1777493011 | 6.11° C | 89% | 1020.6 hPa | 1.27 mm | - | 223 W/m² | - |
| 1777491802 | 7.22° C | 79% | 1021.6 hPa | 0 mm | - | 33 W/m² | - |
| 1777491498 | 7.78° C | 79% | 1021.4 hPa | 0 mm | - | 65 W/m² | - |
| 1777491196 | 7.78° C | 78% | 1021 hPa | 1.27 mm | - | 198 W/m² | - |
| 1777490892 | 7.78° C | 80% | 1021.2 hPa | 1.27 mm | - | 275 W/m² | - |
| 1777490588 | 7.22° C | 83% | 1021.2 hPa | 3.05 mm | - | 408 W/m² | - |
| 1777490284 | 7.78° C | 81% | 1021.1 hPa | 1.78 mm | - | 535 W/m² | - |
| 1777489679 | 8.33° C | 78% | 1021 hPa | 0 mm | - | 246 W/m² | - |
| 1777489072 | 7.78° C | 85% | 1020.5 hPa | 0 mm | - | 314 W/m² | - |
| 1777488467 | 6.11° C | 88% | 1020 hPa | 1.78 mm | - | 404 W/m² | - |
| 1777487863 | 6.11° C | 88% | 1020.2 hPa | 4.32 mm | - | 117 W/m² | - |
* Rain latest hour (hover to see other rain measurements)
** Current wind speed in m/s (hover to see current wind gust speed)